SL-3 R/B (13154 NORAD) Tracking and Keplerian Element Data

This shows tracking and keplerian element data for the satellite.

Feedback or suggestion? Click here.




ElementValue
Catalog13154
NameSL-3 R/B
Epoch Orbit26317
Epoch Day12.91189689
Epoch Year2024
RAAN36.2044
Inclination81.1809
Eccentricity0.0037426
Argument of Perigee27.6771
Mean Anonmoly332.6431
Mean Motion15.02606369
Decay Rate3.268E-05
L11 13154U 82039B 24012.91189689 .00003268 00000+0 24020-3 0 9995
L22 13154 81.1809 36.2044 0037426 27.6771 332.6431 15.02606369263173



Live tracking and technical data element details for SL-3 R/B (NORAD 13154). SL-3 R/B can be tracked NOW for your location showing map with azimuth and elevation plus other details from your city location.







IsCatalogInMostPopularTable: catalog: 13154, numindb: 346
Update: records affected: 1



GetName: 13154 SL-3 R/B

Hit Count: updated at: Fri, 19 Apr 2024 12:41:29 GMT